• En España
  • Lista de países
  • Para 7 días
  • Temperatura del agua
  • Mapa Satelital
  • El tiempo en el mapa
  • Informadores
  • user-avatar
    Iniciar sesión

    Tiempo cada hora Darwin

    Hoy, 23 Noviembre, Jueves

    Tiempo Temperatura Precipitaciones Viento Presión Humedad
    00:00 +30°C° 0 mm 1 mps 754 mmHg 75%
    01:00 +30°C° 0,1 mm 1 mps 754 mmHg 76%
    02:00 +30°C° 0,1 mm 1 mps 754 mmHg 76%
    03:00 +29°C° 0 mm 1 mps 753 mmHg 77%
    04:00 +29°C° 0 mm 1 mps 754 mmHg 78%
    05:00 +29°C° 0 mm 1 mps 754 mmHg 79%
    06:00 +29°C° 0 mm 1 mps 754 mmHg 80%
    07:00 +31°C° 0 mm 1 mps 754 mmHg 71%
    08:00 +33°C° 0 mm 1 mps 754 mmHg 62%
    09:00 +36°C° 0 mm 2 mps 754 mmHg 54%
    10:00 +37°C° 0 mm 2 mps 754 mmHg 49%
    11:00 +39°C° 0 mm 2 mps 754 mmHg 44%
    12:00 +40°C° 0 mm 2 mps 754 mmHg 40%
    13:00 +39°C° 0,2 mm 3 mps 753 mmHg 42%
    14:00 +39°C° 0,2 mm 3 mps 753 mmHg 44%
    15:00 +35°C° 0 mm 2 mps 753 mmHg 58%
    16:00 +34°C° 1 mm 2 mps 753 mmHg 62%
    17:00 +34°C° 1 mm 2 mps 753 mmHg 66%
    18:00 +32°C° 1 mm 2 mps 753 mmHg 70%
    19:00 +31°C° 0 mm 2 mps 754 mmHg 71%
    20:00 +31°C° 0 mm 3 mps 754 mmHg 73%
    21:00 +30°C° 0 mm 3 mps 755 mmHg 78%
    22:00 +30°C° 0 mm 3 mps 755 mmHg 79%
    23:00 +30°C° 0 mm 3 mps 755 mmHg 79%

    Mañana, 24 Noviembre, Viernes

    Tiempo Temperatura Precipitaciones Viento Presión Humedad
    00:00 +30°C° 0 mm 3 mps 755 mmHg 80%
    01:00 +29°C° 0 mm 3 mps 755 mmHg 81%
    02:00 +29°C° 0 mm 3 mps 755 mmHg 82%
    03:00 +29°C° 0 mm 2 mps 754 mmHg 83%
    04:00 +29°C° 0 mm 2 mps 755 mmHg 84%
    05:00 +29°C° 0 mm 3 mps 755 mmHg 84%
    06:00 +29°C° 0 mm 3 mps 755 mmHg 85%
    07:00 +30°C° 0 mm 3 mps 755 mmHg 76%
    08:00 +33°C° 0 mm 3 mps 755 mmHg 68%
    09:00 +35°C° 0 mm 3 mps 756 mmHg 60%
    10:00 +37°C° 0 mm 3 mps 755 mmHg 53%
    11:00 +38°C° 0 mm 4 mps 755 mmHg 47%
    12:00 +41°C° 0 mm 4 mps 755 mmHg 40%
    13:00 +40°C° 0 mm 4 mps 754 mmHg 41%
    14:00 +40°C° 0 mm 4 mps 754 mmHg 41%
    15:00 +40°C° 0 mm 5 mps 753 mmHg 42%
    16:00 +39°C° 0 mm 5 mps 754 mmHg 47%
    17:00 +37°C° 0 mm 5 mps 754 mmHg 52%
    18:00 +35°C° 0 mm 5 mps 754 mmHg 57%
    19:00 +34°C° 1,2 mm 5 mps 754 mmHg 63%
    20:00 +33°C° 1,2 mm 5 mps 755 mmHg 70%
    21:00 +32°C° 1,2 mm 5 mps 755 mmHg 77%
    22:00 +30°C° 2,7 mm 4 mps 755 mmHg 79%
    23:00 +30°C° 2,7 mm 3 mps 755 mmHg 81%

    Pasado mañana, 25 Noviembre, Sábado

    Tiempo Temperatura Precipitaciones Viento Presión Humedad
    00:00 +29°C° 2,7 mm 3 mps 756 mmHg 84%
    01:00 +29°C° 2,2 mm 3 mps 755 mmHg 84%
    02:00 +29°C° 2,2 mm 2 mps 755 mmHg 85%
    03:00 +29°C° 2,2 mm 2 mps 755 mmHg 85%
    04:00 +29°C° 0,1 mm 2 mps 755 mmHg 85%
    05:00 +29°C° 0,1 mm 2 mps 755 mmHg 85%
    06:00 +29°C° 0,1 mm 2 mps 756 mmHg 85%
    07:00 +30°C° 0 mm 2 mps 756 mmHg 77%
    08:00 +32°C° 0 mm 2 mps 756 mmHg 70%
    09:00 +34°C° 0 mm 1 mps 757 mmHg 63%
    10:00 +35°C° 0 mm 2 mps 757 mmHg 59%
    11:00 +36°C° 0 mm 2 mps 756 mmHg 55%
    12:00 +37°C° 0 mm 2 mps 756 mmHg 51%
    13:00 +37°C° 0,2 mm 2 mps 755 mmHg 51%
    14:00 +37°C° 0,2 mm 2 mps 755 mmHg 51%
    15:00 +37°C° 0,2 mm 2 mps 754 mmHg 51%
    16:00 +36°C° 0,4 mm 2 mps 754 mmHg 55%
    17:00 +35°C° 0,4 mm 2 mps 754 mmHg 58%
    18:00 +34°C° 0,4 mm 2 mps 754 mmHg 62%
    19:00 +32°C° 0 mm 2 mps 754 mmHg 65%
    20:00 +32°C° 0 mm 2 mps 755 mmHg 68%
    21:00 +31°C° 0 mm 1 mps 755 mmHg 72%
    22:00 +31°C° 0 mm 2 mps 755 mmHg 73%
    23:00 +30°C° 0 mm 2 mps 755 mmHg 74%

    26 Noviembre, Domingo

    Tiempo Temperatura Precipitaciones Viento Presión Humedad
    00:00 +30°C° 0 mm 2 mps 755 mmHg 76%
    01:00 +30°C° 0,2 mm 2 mps 755 mmHg 78%
    02:00 +30°C° 0,2 mm 2 mps 755 mmHg 80%
    03:00 +29°C° 0,2 mm 2 mps 754 mmHg 81%
    04:00 +29°C° 0,2 mm 2 mps 755 mmHg 82%
    05:00 +29°C° 0,2 mm 2 mps 755 mmHg 82%
    06:00 +29°C° 0,2 mm 2 mps 755 mmHg 82%
    07:00 +31°C° 0,4 mm 2 mps 756 mmHg 75%
    08:00 +32°C° 0,4 mm 2 mps 756 mmHg 68%
    09:00 +35°C° 0,4 mm 2 mps 756 mmHg 60%
    10:00 +36°C° 0,3 mm 2 mps 756 mmHg 56%
    11:00 +37°C° 0,3 mm 2 mps 755 mmHg 51%
    12:00 +38°C° 0,3 mm 2 mps 755 mmHg 47%
    13:00 +38°C° 0 mm 2 mps 754 mmHg 46%
    14:00 +38°C° 0 mm 2 mps 754 mmHg 45%
    15:00 +38°C° 0 mm 2 mps 753 mmHg 45%
    16:00 +37°C° 0,1 mm 2 mps 753 mmHg 48%
    17:00 +36°C° 0,1 mm 2 mps 753 mmHg 52%
    18:00 +35°C° 0,1 mm 3 mps 753 mmHg 55%
    19:00 +34°C° 0,2 mm 3 mps 754 mmHg 59%
    20:00 +33°C° 0,2 mm 3 mps 754 mmHg 64%
    21:00 +33°C° 0,2 mm 4 mps 754 mmHg 68%
    22:00 +31°C° 0,7 mm 3 mps 754 mmHg 73%
    23:00 +30°C° 0,7 mm 3 mps 754 mmHg 78%

    27 Noviembre, Lunes

    Tiempo Temperatura Precipitaciones Viento Presión Humedad
    00:00 +30°C° 0,7 mm 3 mps 754 mmHg 82%
    01:00 +29°C° 0,6 mm 3 mps 754 mmHg 83%
    02:00 +29°C° 0,6 mm 2 mps 754 mmHg 83%
    03:00 +29°C° 0,6 mm 2 mps 753 mmHg 84%
    04:00 +29°C° 0,6 mm 2 mps 754 mmHg 84%
    05:00 +29°C° 0,6 mm 1 mps 754 mmHg 84%
    06:00 +29°C° 0,6 mm 1 mps 755 mmHg 84%
    07:00 +30°C° 0,6 mm 1 mps 755 mmHg 76%
    08:00 +32°C° 0,6 mm 1 mps 756 mmHg 69%
    09:00 +33°C° 0,6 mm 1 mps 756 mmHg 62%
    10:00 +35°C° 0 mm 1 mps 755 mmHg 56%
    11:00 +37°C° 0 mm 2 mps 755 mmHg 49%
    12:00 +39°C° 0 mm 2 mps 754 mmHg 43%
    13:00 +39°C° 0 mm 2 mps 753 mmHg 42%
    14:00 +39°C° 0 mm 3 mps 752 mmHg 41%
    15:00 +39°C° 0 mm 3 mps 752 mmHg 41%
    16:00 +37°C° 0,3 mm 3 mps 752 mmHg 47%
    17:00 +36°C° 0,3 mm 3 mps 752 mmHg 52%
    18:00 +34°C° 0,3 mm 4 mps 752 mmHg 58%
    19:00 +34°C° 0,4 mm 3 mps 753 mmHg 62%
    20:00 +32°C° 0,4 mm 2 mps 753 mmHg 66%
    21:00 +31°C° 0,4 mm 2 mps 754 mmHg 70%
    22:00 +31°C° 0,7 mm 2 mps 754 mmHg 73%
    23:00 +30°C° 0,7 mm 1 mps 754 mmHg 76%

    28 Noviembre, Martes

    Tiempo Temperatura Precipitaciones Viento Presión Humedad
    00:00 +30°C° 0,7 mm 1 mps 754 mmHg 79%
    01:00 +30°C° 0 mm 1 mps 754 mmHg 80%
    02:00 +29°C° 0 mm 2 mps 753 mmHg 81%
    03:00 +29°C° 0 mm 2 mps 753 mmHg 82%
    04:00 +29°C° 0,2 mm 2 mps 753 mmHg 83%
    05:00 +29°C° 0,2 mm 2 mps 754 mmHg 84%
    06:00 +29°C° 0,2 mm 2 mps 754 mmHg 85%
    07:00 +30°C° 0 mm 2 mps 755 mmHg 77%
    08:00 +32°C° 0 mm 2 mps 755 mmHg 69%
    09:00 +35°C° 0 mm 3 mps 755 mmHg 60%
    10:00 +36°C° 0,1 mm 3 mps 755 mmHg 55%
    11:00 +37°C° 0,1 mm 3 mps 755 mmHg 50%
    12:00 +39°C° 0,1 mm 3 mps 754 mmHg 45%
    13:00 +38°C° 0,1 mm 3 mps 754 mmHg 46%
    14:00 +38°C° 0,1 mm 3 mps 753 mmHg 47%
    15:00 +38°C° 0,1 mm 3 mps 752 mmHg 47%
    16:00 +37°C° 0,2 mm 3 mps 753 mmHg 51%
    17:00 +36°C° 0,2 mm 2 mps 753 mmHg 54%
    18:00 +35°C° 0,2 mm 2 mps 753 mmHg 58%
    19:00 +34°C° 0,3 mm 2 mps 754 mmHg 61%
    20:00 +33°C° 0,3 mm 3 mps 754 mmHg 65%
    21:00 +31°C° 0,3 mm 3 mps 755 mmHg 68%
    22:00 +31°C° 0,5 mm 3 mps 755 mmHg 71%
    23:00 +30°C° 0,5 mm 3 mps 755 mmHg 74%
    Mostrar más